Regional Weather Roundup
Issued by NWS Newport/Morehead, NC

Current Version | Previous Version | Graphics & Text | Print | Product List | Glossary Off
Versions: 1 2 3 4 5 6 7 8 9 10 11 12 13 14 15 16 17 18 19 20 21 22 23 24 25 26 27 28 29 30 31 32 33 34 35 36 37 38 39 40 41 42 43 44 45 46 47 48 49 50
000 ASUS42 KMHX 251622 RWRMHX WEATHER ROUNDUP FOR EASTERN NORTH CAROLINA NATIONAL WEATHER SERVICE NEWPORT/MOREHEAD CITY NC 1100 AM EST THU DEC 25 2014 NOTE: "FAIR" INDICATES FEW OR NO CLOUDS BELOW 12,000 FEET WITH NO SIGNIFICANT WEATHER AND/OR OBSTRUCTIONS TO VISIBILITY NCZ015>017-031-032-045>047-102-103-251700- NORTH COAST CITY SKY/WX TMP DP RH WIND PRES REMARKS EDENTON CLOUDY 55 41 59 W10G18 30.00R ELIZABETH CITY CLOUDY 57 42 57 W13 29.96R KITTY HAWK CLOUDY 54 44 70 W10G20 29.96R MANTEO CLOUDY 54 41 62 W12G29 29.97R $$ NCZ045>047-081-094-103-104-251700- CENTRAL COAST CITY SKY/WX TMP DP RH WIND PRES REMARKS FRISCO CLOUDY 57 51 80 W12G24 29.96R SWANQUARTER N/A 57 N/A N/A NW13G18 29.94S $$ NCZ095-097-098-100-101-251700- SOUTHERN COAST CITY SKY/WX TMP DP RH WIND PRES REMARKS BEAUFORT CLOUDY 57 50 77 W15 30.02R CEDAR ISLAND N/A 57 N/A N/A W7G17 30.03R JACKSONVILLE CLOUDY 55 47 74 W12 30.05R PINEY ISLAND CLOUDY 59 50 72 W14 30.00S WILMINGTON CLOUDY 54 45 71 W13 30.07R $$ NCZ011>013-027>030-043-044-078>080-089-090>093-098-251700- COASTAL PLAIN CITY SKY/WX TMP DP RH WIND PRES REMARKS AHOSKIE CLOUDY 52 38 59 CALM 30.01R CLINTON CLOUDY 57 45 63 W10G17 30.07R ELIZABETHTOWN CLOUDY 54 43 67 W10 30.08R GOLDSBORO CLOUDY 56 44 63 W12 30.03R GREENVILLE CLOUDY 55 39 54 W8 N/A HAVELOCK CLOUDY 57 49 74 W15 30.04R KENANSVILLE CLOUDY 56 46 69 W6 30.06S KINSTON CLOUDY 57 37 47 W13G18 30.04R NEW BERN CLOUDY 59 49 69 W13 30.03R RICHLANDS CLOUDY 55 46 71 W6 30.05F ROCKY MOUNT PTSUNNY 56 38 50 W10G18 30.03R WASHINGTON CLOUDY 56 44 64 NW9 30.02R WHITEVILLE CLOUDY 54 43 66 SW7 30.09R $$ AMZ130-135-150-152-154-156-158-170-250-252-270-ANZ085-086-088-633-658-670-251700- MARINE OBSERVATIONS STATION/POSITION TIME TEMP WIND PRES WAVE SWELL AIR SEA DIR/SP/G HT/PER HT/PER (UTC) (F) (DEG/KT/KT) (MB) (FT/S) (FT/S) CHESAPEAKE LIGHT 1600 51 320/ 17/ 18 1014.5 64 E VA BEACH 1600 56 53 300/ 21/ 27 1011.9 6/ 8 5/ 8 DUCK 1600 55 50 290/ 19/ 26 1013.6 2 E DUCK 1600 50 N/A 3/ 9 10 NE DUCK 1600 50 N/A 4/ 8 OREGON INLET 1600 54 54 280/ 12/ 19 1014.6 13E OREGON INLT 1600 51 N/A 5/ 8 2/11 HATTERAS CG 1600 57 57 280/ 16/ 22 1015.6 DIAMOND BUOY 1600 63 1014.9 8/ 8 17 S OCRACOKE NOT AVBL CAPE LOOKOUT 1600 57 280/ 14/ 16 1016.1 BEAUFORT LAB 1600 56 55 290/ 12/ 16 1016.1 30 SE NEW RIVER 1600 57 60 280/ 17/ 21 1017.3 6/ 7 3/ 8 5 SE WRIGHTSVLE NOT AVBL 225 S CAPE HAT 1539 74 72 280/ 19/ 23 1017.7 9/ 8 2/14 41 SE CHARLESTON 1600 57 72 290/ 17/ 21 1019.6 6/ 5 2/ 9 $$

USA.gov is the U.S. government's official web portal to all federal, state and local government web resources and services.